Weather in Lisitsino

Russia / Kostroma Oblast     58°38′38″N   44°32′39″E
temp.,
°C
wind,
m/s
gust,
m/s
humid.,
%
clouds,
%
prec.,
mm/h
press.,
hPa
HPBL,
m
18 may, tue
tue1800:00+14e2586100 0.0 101882
03:00+13e3889100 0.0 1018167
06:00+15e3108327 0.1 1018298
09:00+21ese476065 0.1 1018673
12:00+25se564874 0.0 10181175
15:00+27se454580 0.0 10171350
18:00+23ese386192 0.0 1017395
21:00+19ese41280100 0.0 1017323
19 may, wed
wed1900:00+16se3138660 0.0 1017381
03:00+15ese3128253 0.1 1017312
06:00+16ese412735 0.0 1017347
09:00+22se585342 0.0 1017613
12:00+26se584435 0.0 10161244
15:00+26se57446 0.0 10161537
18:00+23se49534 0.0 1015882
21:00+18se413680 0.0 1016419
20 may, thu
thu2000:00+16ese312790 0.0 1016303
03:00+14ese312850 0.0 1015289
06:00+17se412780 0.0 1015358
09:00+23se59558 0.0 1014864
12:00+26se69371 0.0 10131895
15:00+26se69425 0.0 10122019
18:00+23se611501 0.0 10111199
21:00+18se311705 0.0 1011394
21 may, fri
fri2100:00+16se412725 0.0 1011431
03:00+14se38890 0.0 1011222
06:00+16sse36840 0.0 1011286
09:00+19s356914 0.4 10101062
12:00+19s3470100 2.8 1009999
15:00+17sse2682100 6.2 1009387
18:00+16ssw2387100 2.4 100869
21:00+14wnw2294100 2.6 100941
22 may, sat
sat2200:00+13wnw4995100 0.3 1010389
03:00+11wnw411966 0.3 1013422
06:00+12wnw389194 0.0 1015346
09:00+16w3560100 0.0 1016966
12:00+19w46395 0.0 10182346
15:00+20w46365 0.0 10182347
18:00+18w364992 0.0 1019582
21:00+12wnw116699 0.0 102010